Location: Gro�sch�nbrunn
(49.5760°N, 11.8868°E)
Time: 12:57:10
(UTC+00:00)

CREW DRAGON DEMO-1 DEB - Pass Details

Date: 18 September 2020
Orbit: 361 x 363 km, 51.6° (Epoch: 25 October)

Event Time Altitude Azimuth Distance (km) Brightness Sun altitude
Rises 18:30:28 0° 275° (W) 2,197 8.5 -12.3°
Reaches altitude 10° 18:32:31 10° 281° (W) 1,351 7.1 -12.6°
Maximum altitude 18:35:29 54° 0° (N) 448 3.3 -13.1°
Enters shadow 18:37:11 22° 71° (ENE) 856 4.2 -13.3°
